TimePST,TemperatureF,Dew PointF,Humidity,Sea Level PressureIn,VisibilityMPH,Wind Direction,Wind SpeedMPH,Gust SpeedMPH,PrecipitationIn,Events,Conditions,WindDirDegrees,DateUTC
12:21 AM,39.2,37.4,93,30.12,9.0,Calm,Calm,-,0.01,Rain,Light Rain,0,2013-03-03 08:21:00
12:41 AM,39.2,37.4,93,30.12,8.0,Calm,Calm,-,0.02,Rain,Light Rain,0,2013-03-03 08:41:00
12:53 AM,39.0,37.0,93,30.11,8.0,Calm,Calm,-,0.02,Rain,Light Rain,0,2013-03-03 08:53:00
1:21 AM,39.2,37.4,93,30.13,9.0,Calm,Calm,-,0.02,Rain,Light Rain,0,2013-03-03 09:21:00
1:32 AM,39.2,37.4,93,30.12,6.0,Calm,Calm,-,0.03,Rain,Light Rain,0,2013-03-03 09:32:00
1:53 AM,39.0,37.0,93,30.10,7.0,Calm,Calm,-,0.04,Rain,Light Rain,0,2013-03-03 09:53:00
2:53 AM,37.9,37.0,97,30.07,10.0,SSW,3.5,-,0.01,,Overcast,210,2013-03-03 10:53:00
3:14 AM,37.4,35.6,93,30.10,10.0,South,3.5,-,N/A,,Overcast,180,2013-03-03 11:14:00
3:26 AM,37.4,35.6,93,30.09,10.0,Calm,Calm,-,N/A,,Mostly Cloudy,0,2013-03-03 11:26:00
3:53 AM,36.0,35.1,97,30.06,10.0,Calm,Calm,-,N/A,,Scattered Clouds,0,2013-03-03 11:53:00
4:53 AM,35.1,33.1,92,30.09,10.0,Calm,Calm,-,N/A,,Partly Cloudy,0,2013-03-03 12:53:00
5:53 AM,33.1,33.1,100,30.10,10.0,Calm,Calm,-,N/A,,Overcast,0,2013-03-03 13:53:00
6:19 AM,33.8,33.8,100,30.10,10.0,NNE,3.5,-,N/A,,Mostly Cloudy,30,2013-03-03 14:19:00
6:53 AM,34.0,33.1,96,30.10,10.0,Calm,Calm,-,N/A,,Mostly Cloudy,0,2013-03-03 14:53:00
7:53 AM,35.1,34.0,96,30.12,10.0,Calm,Calm,-,N/A,,Mostly Cloudy,0,2013-03-03 15:53:00
8:53 AM,39.9,36.0,86,30.10,10.0,NW,3.5,-,N/A,,Scattered Clouds,320,2013-03-03 16:53:00
9:53 AM,42.1,33.1,70,30.09,10.0,NNW,3.5,-,N/A,,Scattered Clouds,330,2013-03-03 17:53:00
10:53 AM,45.0,32.0,60,30.08,10.0,NW,8.1,-,N/A,,Scattered Clouds,320,2013-03-03 18:53:00
11:53 AM,44.1,30.0,58,30.08,10.0,NNW,4.6,-,N/A,,Mostly Cloudy,340,2013-03-03 19:53:00
12:53 PM,45.0,28.9,53,30.06,10.0,NNW,6.9,-,N/A,,Mostly Cloudy,330,2013-03-03 20:53:00
1:53 PM,46.9,28.9,50,30.04,10.0,Variable,4.6,-,N/A,,Mostly Cloudy,0,2013-03-03 21:53:00
2:53 PM,48.9,30.0,48,30.03,10.0,SW,9.2,-,N/A,,Scattered Clouds,230,2013-03-03 22:53:00
3:53 PM,48.9,28.9,46,30.02,10.0,West,9.2,-,N/A,,Partly Cloudy,260,2013-03-03 23:53:00
4:53 PM,48.9,28.9,46,30.02,10.0,NNW,5.8,-,N/A,,Partly Cloudy,330,2013-03-04 00:53:00
5:53 PM,43.0,30.0,60,30.05,10.0,West,8.1,-,N/A,,Partly Cloudy,280,2013-03-04 01:53:00
6:53 PM,37.0,28.9,73,30.07,7.0,North,3.5,-,N/A,,Clear,10,2013-03-04 02:53:00
7:53 PM,34.0,28.0,79,30.08,7.0,West,6.9,-,N/A,,Clear,270,2013-03-04 03:53:00
8:53 PM,30.0,26.1,85,30.09,7.0,NNW,5.8,-,N/A,,Clear,340,2013-03-04 04:53:00
9:53 PM,33.1,27.0,78,30.08,10.0,Calm,Calm,-,N/A,,Clear,0,2013-03-04 05:53:00
10:53 PM,28.9,26.1,89,30.09,10.0,North,3.5,-,N/A,,Clear,360,2013-03-04 06:53:00
11:53 PM,30.9,23.0,72,30.09,10.0,NNW,8.1,-,N/A,,Clear,330,2013-03-04 07:53:00